TimePST,TemperatureF,Dew PointF,Humidity,Sea Level PressureIn,VisibilityMPH,Wind Direction,Wind SpeedMPH,Gust SpeedMPH,PrecipitationIn,Events,Conditions,WindDirDegrees,DateUTC
12:56 AM,48.0,12.0,24,29.54,10.0,NW,19.6,26.5,N/A,,Clear,310,2012-11-09 08:56:00
1:56 AM,45.0,8.1,22,29.53,10.0,NW,10.4,18.4,N/A,,Clear,320,2012-11-09 09:56:00
2:17 AM,46.4,10.4,23,29.63,10.0,West,15.0,26.5,N/A,,Clear,280,2012-11-09 10:17:00
2:56 AM,41.0,19.9,43,29.57,10.0,North,23.0,33.4,N/A,,Clear,360,2012-11-09 10:56:00
3:56 AM,39.0,18.0,43,29.60,10.0,NNE,16.1,31.1,N/A,,Clear,20,2012-11-09 11:56:00
4:56 AM,37.9,14.0,38,29.63,10.0,NNW,12.7,-,N/A,,Clear,330,2012-11-09 12:56:00
5:56 AM,37.9,12.9,36,29.64,10.0,NNW,8.1,-,N/A,,Clear,330,2012-11-09 13:56:00
6:56 AM,37.9,10.9,33,29.66,10.0,North,10.4,-,N/A,,Scattered Clouds,360,2012-11-09 14:56:00
7:56 AM,43.0,7.0,23,29.66,10.0,NNW,16.1,21.9,N/A,,Clear,330,2012-11-09 15:56:00
8:56 AM,46.9,5.0,18,29.67,10.0,North,16.1,-,N/A,,Clear,10,2012-11-09 16:56:00
9:56 AM,46.0,1.0,16,29.67,10.0,Calm,Calm,-,N/A,,Partly Cloudy,0,2012-11-09 17:56:00
10:56 AM,48.0,-0.9,13,29.63,10.0,Variable,5.8,-,N/A,,Mostly Cloudy,0,2012-11-09 18:56:00
11:56 AM,46.9,1.9,16,29.63,10.0,NNW,15.0,21.9,N/A,,Overcast,340,2012-11-09 19:56:00
12:56 PM,50.0,1.9,14,29.60,10.0,North,16.1,19.6,N/A,,Overcast,10,2012-11-09 20:56:00
1:56 PM,46.9,1.9,16,29.63,10.0,West,10.4,27.6,N/A,,Scattered Clouds,260,2012-11-09 21:56:00
2:17 PM,44.6,15.8,31,29.69,10.0,NW,20.7,28.8,N/A,,Overcast,320,2012-11-09 22:17:00
2:56 PM,45.0,10.9,25,29.68,10.0,NW,6.9,32.2,N/A,,Overcast,320,2012-11-09 22:56:00
3:56 PM,44.1,10.9,26,29.68,10.0,NE,11.5,-,N/A,,Clear,40,2012-11-09 23:56:00
4:56 PM,39.9,9.0,28,29.70,10.0,West,8.1,-,N/A,,Mostly Cloudy,260,2012-11-10 00:56:00
5:56 PM,37.9,1.9,22,29.74,10.0,North,9.2,-,N/A,,Mostly Cloudy,360,2012-11-10 01:56:00
6:56 PM,36.0,12.9,39,29.77,10.0,North,11.5,-,N/A,,Partly Cloudy,360,2012-11-10 02:56:00
7:56 PM,34.0,12.9,42,29.77,10.0,NNW,4.6,-,N/A,,Clear,330,2012-11-10 03:56:00
8:56 PM,30.9,12.9,47,29.79,10.0,West,6.9,-,N/A,,Clear,270,2012-11-10 04:56:00
9:56 PM,28.9,10.0,45,29.80,10.0,NNW,3.5,-,N/A,,Clear,340,2012-11-10 05:56:00
10:56 PM,30.0,7.0,38,29.80,10.0,WNW,6.9,-,N/A,,Clear,290,2012-11-10 06:56:00
11:56 PM,25.0,7.0,46,29.82,10.0,Calm,Calm,-,N/A,,Clear,0,2012-11-10 07:56:00